Tracking 21496 objects as of 30-Sep-2020
HD Live streaming from Space Station
objects crossing your sky now

STARLINK-1656

Track STARLINK-1656 now!
10-day predictions
STARLINK-1656 is classified as:


NORAD ID: 46353
Int'l Code: 2020-062AE
Perigee: 400.7 km
Apogee: 402.6 km
Inclination: 53.0 °
Period: 92.4 minutes
Semi major axis: 6772 km
RCS: Unknown
Launch date: September 3, 2020
Source: United States (US)
Launch site: AIR FORCE EASTERN TEST RANGE (AFETR)
aabbcc
Your satellite tracking list
Your tracking list is empty




NASA's NSSDC Master Catalog

Two Line Element Set (TLE):
1 46353U 20062AE  20273.83334491 -.01093796 +00000-0 -16013-1 0  9999
2 46353 053.0013 300.5219 0001389 056.8495 066.3777 15.57645603001811
Source of the keplerian elements: AFSPC